Theta_e
354 361 367 369 368 366 365 364 363 362 361 361 361 361 361 362 362 363 362 362 363 363 363 361 359 359 355 354 355 358 358 357 355 354 353 353 352 351 350 350 351 349 352
356 360 366 368 368 366 365 364 362 361 361 361 362 361 361 363 363 363 362 362 363 361 361 360 359 357 354 354 355 355 356 355 354 353 352 351 351 351 350 351 353 349 352
356 360 363 367 367 365 364 363 361 361 361 361 362 361 361 363 363 364 362 362 362 360 358 359 358 356 355 354 354 355 355 354 353 353 354 351 346 352 351 350 350 350 349
357 358 360 366 367 365 364 363 361 361 361 361 362 361 361 363 363 363 362 361 360 358 357 356 356 355 354 353 354 354 354 353 354 355 352 353 350 354 352 351 349 348 349
357 356 364 366 366 365 364 362 361 361 361 362 362 361 361 362 363 363 362 360 359 356 356 355 354 354 354 352 353 353 352 352 354 353 350 351 347 351 355 351 350 349 349
354 356 364 365 365 364 364 362 361 362 362 362 362 361 361 362 362 362 362 359 358 357 357 356 355 355 354 353 353 352 354 356 357 352 355 350 348 355 356 354 349 352 352
352 360 361 364 364 364 364 363 362 362 361 361 361 361 362 362 362 362 362 361 358 359 357 357 357 357 357 355 355 353 353 355 352 349 350 348 349 356 357 356 354 353 354
352 357 359 364 364 363 363 362 361 361 360 360 360 361 361 361 361 361 361 361 359 358 359 358 357 357 357 356 354 354 354 352 349 347 349 349 352 357 358 356 355 355 355
354 353 356 359 363 362 362 361 360 360 359 360 360 360 360 360 361 361 361 360 359 358 357 357 357 356 355 354 353 353 353 352 346 344 346 347 356 358 359 358 357 357 356
350 349 351 357 358 360 360 361 360 360 359 359 359 359 359 360 360 360 358 358 358 357 357 356 355 354 354 353 353 353 353 353 345 340 340 342 354 357 357 357 358 358 358
347 347 347 347 352 354 357 359 360 360 360 359 359 359 356 352 354 355 354 358 358 357 356 356 355 354 354 353 353 353 354 343 338 339 341 353 353 355 354 352 353 354 356
344 345 345 344 346 346 349 357 357 357 356 356 354 355 350 348 351 350 353 358 359 358 356 355 354 354 353 342 342 351 346 340 336 335 336 353 355 355 353 352 352 353 354
346 346 345 347 348 345 345 348 346 349 349 350 351 352 350 345 350 347 353 351 353 354 350 351 349 347 341 338 336 339 340 341 340 335 338 353 353 354 353 351 352 353 354
346 347 347 350 350 353 350 345 348 347 348 347 348 352 349 351 354 348 347 350 350 348 348 348 347 345 342 341 338 341 342 339 337 335 340 353 352 351 352 352 352 354 355
347 348 347 351 352 357 351 349 350 351 350 350 351 352 348 351 357 355 351 353 351 348 349 349 346 348 346 345 344 343 341 340 341 340 339 354 350 350 353 354 354 355 356
350 350 349 351 354 358 363 354 356 357 353 355 353 354 353 359 364 355 358 356 355 354 351 351 351 350 349 347 346 347 345 342 341 342 344 346 352 351 352 354 355 356 357
353 354 351 353 356 360 367 362 361 356 353 357 355 359 357 363 365 360 359 362 359 355 356 352 350 348 346 344 342 343 342 341 343 347 346 348 350 351 350 352 355 356 357
359 355 353 353 356 361 362 367 368 363 362 355 363 360 362 364 364 364 357 356 359 356 356 353 350 346 344 342 343 346 346 347 344 348 346 348 348 346 352 352 353 353 350
359 346 354 355 357 361 364 365 364 364 357 359 357 359 361 360 359 358 358 358 356 357 355 352 350 350 347 346 344 342 345 345 345 343 340 347 346 343 342 346 350 349 348
357 356 359 361 361 361 362 365 365 365 363 362 361 360 361 361 360 359 359 359 358 357 353 350 350 351 348 347 347 345 344 344 345 346 346 347 346 343 343 342 344 347 345
358 357 360 358 361 359 358 354 353 352 359 360 359 360 361 361 360 357 358 357 357 352 350 352 350 348 345 349 343 341 343 344 343 344 349 346 345 344 340 339 340 341 345
350 357 357 357 359 361 357 357 358 355 359 358 360 357 357 358 359 357 357 356 357 355 354 350 350 344 345 347 340 337 330 334 338 340 340 340 337 336 335 335 336 336 337
350 348 352 358 359 360 361 360 358 358 356 355 353 354 357 355 356 356 355 354 352 352 349 349 348 345 339 341 344 335 328 325 330 334 336 335 336 332 335 336 336 336 336
353 353 353 357 358 357 360 356 354 351 346 349 353 354 355 353 352 352 351 349 346 347 347 344 343 343 340 335 337 341 337 333 325 322 330 331 336 335 336 337 335 334 335
351 351 353 354 353 357 359 356 352 351 351 351 351 350 347 345 346 344 346 344 343 343 342 339 340 338 337 335 333 334 334 334 332 327 321 325 330 333 333 335 336 335 333
350 350 351 350 351 354 356 356 354 351 347 346 345 345 342 340 337 338 336 339 336 334 333 332 332 335 332 333 331 329 327 327 325 325 321 321 322 326 328 329 330 332 335
Wind_Speed
18 16 16 15 16 17 17 17 15 15 15 15 15 15 13 13 14 13 14 13 12 11 9 9 6 5 7 9 11 11 12 11 11 10 9 9 8 7 6 6 6 9 9
21 17 15 16 16 17 17 17 16 15 15 16 16 15 13 12 12 13 12 12 11 11 10 9 8 7 7 7 8 8 9 8 5 4 4 5 7 7 5 6 9 8 7
20 16 15 15 17 17 17 17 15 15 16 16 16 15 13 11 12 12 12 12 12 11 10 9 9 7 6 7 6 6 6 3 1 2 4 5 8 9 7 5 5 5 5
19 13 14 15 16 17 17 16 17 15 16 16 15 15 13 11 11 11 10 11 11 10 9 9 9 8 6 6 5 4 3 1 4 6 6 9 8 12 11 7 3 2 2
17 15 14 15 16 16 17 17 17 16 16 16 15 14 13 11 10 10 9 9 9 9 8 8 8 7 6 5 4 3 1 3 7 9 9 10 8 10 9 8 6 5 4
18 17 16 15 16 16 17 18 17 16 16 16 15 14 13 12 10 9 8 7 8 8 8 7 7 6 6 5 4 1 2 6 10 9 10 4 7 13 11 9 5 4 6
18 18 15 15 16 17 17 17 17 17 16 16 15 14 13 12 11 10 9 8 7 7 7 7 7 6 5 4 3 1 3 7 8 10 11 5 9 13 12 10 8 6 6
18 17 15 15 15 16 17 18 16 16 16 16 15 14 14 13 11 10 9 8 8 7 7 7 5 5 5 4 4 4 4 6 9 10 11 2 11 13 12 9 8 8 9
20 16 13 14 14 16 16 17 17 16 15 15 14 14 13 13 12 10 10 9 9 9 8 8 8 8 7 7 7 7 7 8 7 6 11 3 11 12 12 10 9 10 10
19 17 14 12 13 12 12 13 15 15 15 15 14 13 13 12 11 10 9 8 9 9 8 8 9 9 8 8 9 10 10 11 8 9 8 7 14 13 13 12 11 12 13
17 16 15 15 13 13 12 12 12 13 12 11 11 11 9 7 8 9 9 10 7 6 6 7 7 7 8 9 10 12 12 5 9 8 8 9 14 14 13 12 12 12 13
19 19 16 15 14 13 12 12 10 10 8 7 8 9 7 7 8 9 10 12 9 8 7 8 8 8 8 6 7 15 6 9 8 9 7 13 15 14 12 11 10 12 14
19 15 18 14 12 14 12 8 6 6 6 5 8 9 7 6 7 6 5 6 5 9 6 8 8 7 10 8 9 7 10 11 7 7 6 14 14 13 12 11 11 13 14
19 18 20 18 13 10 12 9 8 8 7 7 7 9 5 3 5 5 5 8 8 6 9 7 7 10 11 11 11 7 6 5 3 3 5 13 13 12 12 12 12 13 15
18 19 21 20 14 8 14 10 9 9 9 9 9 10 6 5 4 4 4 3 6 7 9 8 7 5 9 10 6 5 7 7 7 5 5 9 13 15 15 14 14 15 18
22 22 23 22 15 9 7 11 6 6 9 8 10 11 11 5 3 5 4 3 3 3 4 2 3 4 4 4 5 5 6 7 7 6 5 5 11 14 16 15 17 18 17
7 19 19 24 19 9 5 6 6 6 5 5 6 13 10 5 4 3 3 2 2 4 2 2 4 4 4 4 7 7 8 9 7 7 8 5 8 13 13 19 19 10 12
13 3 17 17 20 12 7 4 2 3 3 3 4 8 9 5 3 1 2 4 3 4 4 4 4 3 5 5 4 5 5 6 7 5 4 5 4 6 8 10 9 5 6
4 16 5 16 17 14 8 6 3 2 1 3 4 5 7 6 5 4 3 4 2 3 2 3 3 4 6 5 6 6 5 5 5 5 13 10 5 5 6 21 20 4 9
15 17 18 13 15 13 8 5 3 1 3 2 4 3 8 4 7 5 3 4 4 3 5 6 5 5 7 6 6 9 9 9 9 5 7 2 3 4 5 11 8 2 8
15 17 13 11 16 11 9 8 7 6 4 2 1 4 6 4 3 5 2 5 4 4 5 5 3 5 6 5 4 6 7 7 9 8 4 2 2 4 6 5 5 4 2
9 9 10 10 11 9 7 7 6 7 3 3 3 5 5 4 3 5 4 3 3 3 3 3 3 4 3 3 2 3 5 3 4 4 3 1 4 3 5 6 6 8 5
18 10 1 9 10 7 7 4 3 5 4 3 4 3 3 6 5 5 3 3 3 3 3 5 5 5 5 5 5 2 3 3 5 4 3 5 5 4 5 6 7 6 5
16 19 19 13 11 10 9 8 8 6 6 4 5 4 5 6 6 5 4 6 6 4 4 4 5 4 4 5 7 3 5 6 3 6 4 7 6 6 7 6 6 6 8
11 14 12 11 12 9 7 8 7 6 6 6 6 9 8 5 7 6 5 6 5 3 4 5 5 4 3 3 5 5 5 5 6 4 9 7 9 10 9 6 6 5 6
13 12 11 10 9 10 6 6 6 8 9 9 9 8 7 7 5 6 7 4 5 5 6 5 6 5 5 4 5 6 5 3 6 4 6 7 8 9 10 10 9 7 6
Wind_Direction
133 137 137 138 137 136 133 132 130 127 127 123 117 114 110 109 108 107 106 105 106 109 124 122 108 95 81 65 61 60 64 64 65 70 79 93 99 94 82 73 13 94 103
132 142 140 140 139 138 137 134 134 133 129 124 120 119 119 119 116 112 111 110 108 110 114 117 111 107 99 84 76 75 78 79 83 102 124 144 140 129 99 64 46 77 88
131 135 143 140 141 139 137 133 132 131 129 126 124 124 125 126 124 119 119 118 118 120 122 122 120 120 116 108 98 94 96 97 197 237 228 218 168 151 132 110 84 79 85
130 138 138 140 143 141 137 134 133 133 130 127 126 127 128 129 126 119 121 122 125 127 127 128 128 127 124 116 115 121 125 194 266 268 255 234 176 159 149 143 132 122 163
138 152 131 140 139 139 136 134 133 134 132 131 130 131 131 129 128 124 125 122 122 125 127 126 124 126 128 126 127 128 164 282 289 292 265 271 120 149 153 157 175 195 209
142 141 137 136 137 138 140 136 135 136 135 133 133 133 136 139 129 125 121 121 124 126 124 122 122 126 129 127 122 105 331 310 314 280 269 128 128 156 162 173 195 205 192
148 123 138 133 136 137 139 136 136 137 137 136 137 139 141 140 137 133 133 136 131 132 130 130 131 136 141 146 157 222 299 302 291 291 294 142 111 153 168 176 188 206 224
136 132 135 132 134 138 139 136 137 137 140 141 142 146 145 144 141 138 139 140 142 145 149 150 157 164 170 184 200 233 262 285 301 302 313 342 146 165 169 179 197 213 228
120 129 141 143 138 143 140 140 141 142 141 142 144 147 148 148 147 147 149 154 159 163 170 174 183 190 194 204 217 232 244 259 273 279 291 304 152 172 173 183 202 224 232
131 137 150 146 151 150 148 139 141 146 148 150 150 152 152 153 153 162 159 173 178 180 185 193 200 205 210 219 226 234 238 246 251 256 260 258 174 184 177 182 199 217 230
139 142 155 157 157 158 149 146 136 141 140 139 143 144 146 174 173 168 197 169 189 196 205 216 222 228 231 239 242 241 243 249 253 247 241 181 174 187 189 190 203 220 229
150 153 156 158 159 163 155 146 157 155 165 175 173 164 189 200 172 189 191 172 188 204 223 231 231 237 243 254 226 233 228 239 248 252 258 171 187 194 193 202 214 231 238
155 155 154 153 164 170 141 153 163 159 162 181 178 163 221 211 176 204 145 172 190 208 224 216 221 228 225 226 248 204 214 228 238 237 274 186 191 195 199 209 221 235 241
162 157 153 150 166 184 136 159 166 165 166 174 178 170 200 237 167 185 177 193 192 197 207 232 213 222 225 237 242 264 235 275 289 301 286 190 195 201 208 215 225 241 251
163 157 157 151 165 189 147 162 177 175 173 178 169 171 199 227 176 186 245 236 170 218 192 217 226 220 213 228 249 268 266 270 276 282 287 204 200 211 216 220 222 229 241
167 165 155 152 159 179 161 159 184 181 178 172 171 172 195 212 212 177 194 254 276 295 308 311 15 359 339 322 294 273 253 246 254 268 271 285 215 223 223 222 227 229 236
20 152 152 146 150 160 185 151 176 176 146 175 175 163 180 215 215 187 258 274 224 245 241 307 307 306 294 275 267 259 264 265 263 259 263 258 266 236 238 232 233 259 250
169 154 144 130 142 148 169 157 115 80 143 202 164 149 164 164 229 328 288 290 59 3 13 18 339 314 295 273 285 295 306 286 272 299 293 273 283 298 325 282 241 229 258
103 88 98 134 152 142 146 126 121 106 301 96 57 129 153 162 216 217 242 255 81 56 315 299 333 334 319 313 307 288 306 292 308 337 325 289 26 14 17 329 280 258 275
150 154 187 149 141 136 151 138 162 208 248 201 161 136 140 180 189 187 237 295 357 14 354 329 323 308 297 302 320 311 310 304 301 251 261 329 301 13 246 259 279 265 231
175 164 162 139 136 152 160 161 174 183 204 177 190 191 121 193 207 164 198 44 24 340 301 318 307 301 300 305 312 294 286 298 294 287 283 285 338 264 253 292 287 277 259
105 121 125 151 147 153 156 171 158 169 195 184 90 105 120 165 132 64 44 27 15 307 284 292 302 288 270 282 296 292 290 313 266 300 312 267 229 253 269 267 268 265 244
142 155 116 186 155 150 156 158 147 127 129 128 149 120 85 70 67 81 82 55 50 333 341 11 14 2 337 324 301 217 293 267 328 275 308 268 279 267 250 237 240 244 234
152 157 169 161 151 166 186 153 159 145 158 162 138 108 84 80 63 76 73 60 46 348 37 20 351 352 334 322 327 326 290 286 292 297 316 313 268 259 260 250 250 224 234
155 143 137 143 161 167 158 153 161 159 124 113 122 122 99 58 57 65 54 54 39 18 46 3 353 352 311 327 317 307 309 309 285 285 302 308 318 315 307 293 289 266 250
126 123 122 128 155 159 155 142 152 132 141 138 134 145 138 115 74 48 53 61 64 18 24 8 348 351 334 342 343 320 320 307 308 303 306 310 301 304 326 316 310 295 262